Total_Precipitation_Accumulation
0.83 0.87 0.92 0.90 0.90 0.94 0.97 1.03 1.09 1.04 0.92 0.74 0.69 0.68 0.69 0.68 0.75 0.67 0.69 0.63 0.59 0.65 0.64 0.68 0.76 0.90 0.90 0.77 0.66 0.60 0.59 0.60 0.64 0.71 0.83 0.97 1.14 1.29
0.64 0.60 0.59 0.59 0.62 0.64 0.70 0.78 0.86 0.94 0.93 0.75 0.68 0.71 0.74 0.68 0.76 0.70 0.68 0.67 0.67 0.89 1.00 0.90 0.84 1.00 1.12 1.01 0.85 0.73 0.67 0.64 0.65 0.68 0.75 0.85 0.97 1.09
0.46 0.46 0.49 0.48 0.49 0.49 0.53 0.63 0.73 0.84 0.94 0.78 0.68 0.70 0.76 0.74 0.75 0.73 0.70 0.71 0.82 1.21 1.44 1.61 1.33 1.21 1.27 1.17 1.02 0.84 0.73 0.68 0.69 0.75 0.82 0.89 0.93 0.96
0.42 0.43 0.45 0.46 0.45 0.44 0.48 0.56 0.66 0.80 0.96 0.92 0.78 0.79 0.80 0.77 0.84 0.85 0.75 0.66 0.73 1.17 1.50 1.83 1.77 1.56 1.56 1.37 1.17 0.91 0.75 0.70 0.71 0.76 0.81 0.85 0.89 0.94
0.40 0.43 0.45 0.51 0.51 0.51 0.56 0.61 0.66 0.75 0.91 0.96 0.89 0.90 0.95 0.97 1.09 1.01 0.87 0.82 0.67 0.92 1.35 1.67 1.85 1.91 2.01 1.85 1.53 1.15 0.85 0.69 0.64 0.67 0.70 0.74 0.77 0.78
0.37 0.42 0.46 0.55 0.59 0.62 0.62 0.65 0.70 0.79 0.86 0.96 0.96 1.00 1.06 1.12 1.17 1.14 0.98 0.85 0.75 0.76 1.18 1.65 1.98 2.03 2.23 2.35 2.04 1.53 1.09 0.79 0.63 0.57 0.52 0.50 0.50 0.51
0.39 0.40 0.44 0.53 0.61 0.58 0.54 0.55 0.67 0.83 0.89 0.98 1.01 0.99 0.98 1.08 1.10 0.96 0.86 0.77 0.69 0.70 0.88 1.30 1.98 2.31 2.37 2.42 2.32 1.81 1.33 0.97 0.72 0.58 0.49 0.44 0.42 0.42
0.43 0.42 0.39 0.42 0.41 0.41 0.46 0.50 0.60 0.80 1.06 1.20 1.11 1.03 0.91 0.91 0.94 0.89 0.87 0.83 0.78 0.59 0.62 0.92 1.51 2.24 2.50 2.50 2.39 1.82 1.31 0.98 0.80 0.68 0.59 0.50 0.45 0.43
0.46 0.44 0.36 0.30 0.34 0.38 0.40 0.43 0.54 0.69 0.93 1.24 1.30 1.06 0.97 0.91 0.93 0.94 0.95 0.98 0.91 0.65 0.66 0.91 1.30 1.97 2.21 2.26 2.15 1.58 1.16 0.92 0.80 0.70 0.63 0.57 0.51 0.47
0.42 0.42 0.42 0.38 0.33 0.34 0.37 0.45 0.57 0.72 0.82 0.90 1.18 1.02 0.83 0.81 0.85 0.86 0.91 0.93 0.86 0.70 0.68 0.93 1.26 1.73 1.78 1.87 1.83 1.42 1.09 0.90 0.79 0.70 0.64 0.60 0.55 0.54
0.33 0.32 0.29 0.31 0.31 0.40 0.53 0.71 0.84 0.97 0.93 1.04 1.19 1.15 1.03 0.94 0.81 0.80 0.92 0.94 0.90 0.80 0.72 0.88 1.13 1.29 1.42 1.55 1.46 1.31 1.09 0.93 0.81 0.73 0.66 0.61 0.55 0.56
0.32 0.34 0.27 0.25 0.34 0.49 0.70 0.93 1.04 1.14 1.04 1.11 1.32 1.37 1.22 1.18 1.14 1.01 1.02 0.97 0.92 0.90 0.74 0.78 0.96 0.99 1.24 1.32 1.24 1.15 1.10 1.09 0.97 0.85 0.75 0.63 0.51 0.49
0.35 0.41 0.39 0.32 0.40 0.59 0.78 0.92 1.05 1.13 1.17 1.21 1.20 1.19 1.24 1.26 1.18 1.09 1.01 0.91 0.85 0.84 0.67 0.70 0.88 0.92 1.05 1.17 1.20 1.20 1.14 1.12 1.03 1.02 0.99 0.83 0.66 0.56
0.44 0.45 0.45 0.41 0.46 0.65 0.81 1.00 1.19 1.30 1.28 1.26 1.09 0.98 0.94 0.95 0.97 0.88 0.78 0.70 0.68 0.67 0.61 0.66 0.86 0.97 0.94 0.95 1.18 1.26 1.26 1.27 1.18 1.12 1.09 1.00 0.87 0.80
0.36 0.41 0.45 0.47 0.63 0.94 1.11 1.25 1.38 1.46 1.45 1.27 1.06 0.95 0.82 0.73 0.72 0.74 0.71 0.64 0.57 0.50 0.45 0.53 0.72 0.86 0.87 0.91 1.14 1.24 1.33 1.49 1.40 1.31 1.17 1.05 0.98 0.90
0.35 0.47 0.58 0.65 0.84 1.13 1.34 1.51 1.54 1.42 1.22 1.10 0.98 0.91 0.77 0.68 0.67 0.61 0.58 0.56 0.59 0.58 0.47 0.45 0.57 0.71 0.82 0.83 0.95 1.11 1.19 1.53 1.52 1.29 1.18 1.14 1.04 0.92
0.32 0.51 0.68 0.81 1.01 1.20 1.36 1.43 1.40 1.28 1.15 0.95 0.85 0.86 0.83 0.74 0.68 0.57 0.50 0.46 0.53 0.55 0.53 0.49 0.51 0.55 0.57 0.63 0.80 0.95 1.06 1.27 1.33 1.13 0.97 1.04 1.07 0.95
0.35 0.53 0.66 0.76 0.94 1.16 1.29 1.25 1.16 1.09 0.99 0.85 0.77 0.74 0.74 0.70 0.65 0.56 0.46 0.45 0.51 0.47 0.43 0.40 0.41 0.45 0.46 0.51 0.67 0.78 0.86 1.03 1.04 0.87 0.69 0.75 1.02 1.03
0.36 0.53 0.64 0.74 0.91 1.06 1.12 1.10 1.06 0.97 0.87 0.80 0.75 0.68 0.61 0.57 0.51 0.46 0.42 0.45 0.44 0.40 0.34 0.28 0.27 0.33 0.41 0.61 0.73 0.76 0.76 0.81 0.77 0.70 0.63 0.64 0.87 1.01
0.39 0.54 0.64 0.71 0.79 0.86 0.93 0.98 0.99 0.91 0.80 0.74 0.73 0.68 0.61 0.53 0.45 0.40 0.39 0.35 0.34 0.34 0.32 0.25 0.20 0.22 0.30 0.44 0.66 0.75 0.67 0.58 0.51 0.53 0.54 0.58 0.73 0.82
0.44 0.55 0.62 0.67 0.69 0.69 0.75 0.81 0.84 0.82 0.74 0.69 0.67 0.65 0.58 0.50 0.41 0.33 0.28 0.18 0.21 0.27 0.28 0.24 0.18 0.14 0.17 0.23 0.40 0.53 0.53 0.53 0.43 0.36 0.34 0.36 0.41 0.42
0.43 0.50 0.55 0.59 0.57 0.57 0.58 0.62 0.65 0.65 0.62 0.59 0.56 0.54 0.47 0.37 0.31 0.25 0.21 0.21 0.23 0.22 0.18 0.14 0.11 0.09 0.11 0.20 0.33 0.40 0.38 0.34 0.30 0.28 0.27 0.24 0.22 0.32
0.40 0.42 0.44 0.46 0.45 0.44 0.44 0.45 0.49 0.53 0.54 0.55 0.52 0.47 0.37 0.30 0.24 0.19 0.15 0.14 0.14 0.13 0.13 0.12 0.09 0.07 0.08 0.12 0.19 0.23 0.24 0.22 0.20 0.20 0.25 0.31 0.31 0.38